Regional Weather Roundup
Issued by NWS

Home | Current Version | Previous Version | Text Only | Print | Product List | Glossary On
Versions: 1 2 3 4 5 6 7 8 9 10 11 12 13 14 15 16 17 18 19 20 21 22 23 24 25 26 27 28 29 30 31 32 33 34 35 36 37 38 39 40 41 42 43 44 45 46 47 48 49 50
000
ASUS43 KTOP 291759
RWRKS

WEATHER ROUNDUP FOR KANSAS
NATIONAL WEATHER SERVICE GOODLAND KS
100 PM CDT FRI AUG 29 2014

NOTE:  "FAIR" INDICATES FEW OR NO CLOUDS BELOW 12,000 FEET WITH NO
SIGNIFICANT WEATHER AND/OR OBSTRUCTIONS TO VISIBILITY.

KSZ001>006-013>018-027>032-041>047-291900-
NORTHWEST KANSAS

CITY           SKY/WX    TMP DP  RH WIND       PRES   REMARKS
GOODLAND       SUNNY     81  52  36 N13       29.98F
6HR MIN TEMP:  53; 6HR MAX TEMP:  82;

HAYS           MOSUNNY   79  61  53 N8        29.89S
HILL CITY      SUNNY     80  58  46 NW9       29.89F
6HR MIN TEMP:  61; 6HR MAX TEMP:  80;

RUSSELL        MOSUNNY   79  60  52 NW7       29.86F
6HR MIN TEMP:  64; 6HR MAX TEMP:  80;

$$

KSZ061>065-074>080-084>089-291900-
SOUTHWEST KANSAS

CITY           SKY/WX    TMP DP  RH WIND       PRES   REMARKS
DODGE CITY     SUNNY     81  51  35 W12       29.93F
6HR MIN TEMP:  61; 6HR MAX TEMP:  81;

ELKHART          N/A     82  50  32 NW7         N/A
GARDEN CITY    SUNNY     80  52  37 N12G17    29.95F
6HR MIN TEMP:  57; 6HR MAX TEMP:  80;

GREAT BEND     SUNNY     81  57  44 NW10      29.88F
LIBERAL        SUNNY     82  50  32 NW15G21   29.98F
$$

KSZ066>073-081>083-090>101-291900-
SOUTHEAST KANSAS

CITY           SKY/WX    TMP DP  RH WIND       PRES   REMARKS
CHANUTE        PTSUNNY   81  66  60 S13       29.90F
6HR MIN TEMP:  69; 6HR MAX TEMP:  82;

COFFEYVILLE    MOSUNNY   83  68  60 S9        29.90F
6HR MIN TEMP:  70; 6HR MAX TEMP:  83; 6HR PCP:  0.17;

HUTCHINSON     SUNNY     83  64  52 S8        29.87F
6HR MIN TEMP:  66; 6HR MAX TEMP:  84; 6HR PCP: TRACE;

NEWTON         SUNNY     81  63  54 SW13G18   29.90F
PARSONS        MOSUNNY   82  69  64 S10       29.92S
6HR MIN TEMP:  69; 6HR MAX TEMP:  82;

WICHITA INTL   MOSUNNY   82  65  56 SW10G20   29.88F
6HR MIN TEMP:  68; 6HR MAX TEMP:  83;

WICHITA JABRA  SUNNY     83  63  50 S14G21    29.88F
6HR MIN TEMP:  67; 6HR MAX TEMP:  83; 6HR PCP:  0.01;

WINFIELD       PTSUNNY   82  67  60 S15       29.91F
6HR MIN TEMP:  69; 6HR MAX TEMP:  82;

$$

KSZ007>012-019>026-033>040-048>060-102>105-291900-
NORTHEAST KANSAS

CITY           SKY/WX    TMP DP  RH WIND       PRES   REMARKS
EMPORIA        MOSUNNY   84  64  50 S15       29.86F
6HR MIN TEMP:  68; 6HR MAX TEMP:  84; 6HR PCP:  0.04;

LAWRENCE       CLOUDY    81  69  67 S9        29.86F
6HR MIN TEMP:  71; 6HR MAX TEMP:  81; 6HR PCP:  0.03;

MANHATTAN      SUNNY     83  64  52 SW10G17   29.83F
6HR MIN TEMP:  69; 6HR MAX TEMP:  84; 6HR PCP:  0.01;

OLATHE IND     CLOUDY    73  70  90 S8        29.89F
6HR MIN TEMP:  70; 6HR MAX TEMP:  80; 6HR PCP:  0.11;

OLATHE EXE     CLOUDY    71  70  96 S7        29.88F
6HR MIN TEMP:  69; 6HR MAX TEMP:  77; 6HR PCP:  0.12;

SALINA         SUNNY     84  65  52 W8        29.85F
6HR MIN TEMP:  67; 6HR MAX TEMP:  84; 6HR PCP: TRACE;

TOPEKA BILLARD CLOUDY    79  68  69 SE6       29.85F
6HR MIN TEMP:  71; 6HR MAX TEMP:  79; 6HR PCP:  0.05;

TOPEKA FORBES  PTSUNNY   78  65  63 S7        29.86F
6HR MIN TEMP:  70; 6HR MAX TEMP:  79; 6HR PCP:  0.02;

$$


USA.gov is the U.S. government's official web portal to all federal, state and local government web resources and services.